Guymon, OK

9:50 AM CST on February 22, 2018 (GMT -0600)
Guymon Municipal

Weather History for KGUY - November, 2010

Change the Weather History Date:

Monday, November 29, 2010

  Actual Average Record
Temperature  
Mean Temperature 35 °F 40 °F  
Max Temperature 43 °F 54 °F 84 °F (2014)
Min Temperature 26 °F 25 °F 12 °F (2001)
Degree Days  
Heating Degree Days 30 25  
Month to date heating degree days 560 556  
Since 1 July heating degree days 707 865  
Cooling Degree Days 0 0  
Month to date cooling degree days 0 0  
Year to date cooling degree days 1827 1481  
Moisture  
Dew Point 19 °F    
Average Humidity 60    
Maximum Humidity 89    
Minimum Humidity 30    
Precipitation  
Precipitation 0.00 in 0.01 in 0.02 in (2015)
Month to date precipitation 0.16 0.52  
Year to date precipitation 14.79 18.65  
Snow  
Snow 0.00 in - - ()
Month to date snowfall 0.0  
Since 1 July snowfall 0.0  
Since 1 September snowfall 0.0  
Snow Depth 0.00 in    
Sea Level Pressure  
Sea Level Pressure 29.80 in    
Wind  
Wind Speed 19 mph (NW)    
Max Wind Speed 31 mph    
Max Gust Speed 37 mph    
Visibility 10 miles    
Events      
T = Trace of Precipitation, MM = Missing Value Source: NWS Daily Summary

Daily Weather History Graph

Daily Weather History Graph

Search for Another Location

Airport or City:

Trip Planner

Search our weather history database for the weather conditions in past years. The results will help you decide how hot, cold, wet, or windy it might be!

Date:

Astronomy

Nov. 29, 2010 Rise Set
Actual Time 7:38 AM CST 5:30 PM CST
Civil Twilight 7:09 AM CST 5:58 PM CST
Nautical Twilight 6:37 AM CST 6:30 PM CST
Astronomical Twilight 6:06 AM CST 7:01 PM CST
Moon 12:56 AM CST (11/29) 1:24 PM CST (11/29)
Length of Visible Light 10h 49m
Length of Day
9h 52m
Last Quarter, 40% of the Moon is Illuminated
Nov 29
Last Quarter
Dec 5
New
Dec 13
First Quarter
Dec 21
Full
Dec 27
Last Quarter

Hourly Weather History & Observations

Time (CST) Temp. Windchill Dew Point Humidity Pressure Visibility Wind Dir Wind Speed Gust Speed Precip Events Conditions
12:53 AM 41.0 °F 31.6 °F 12.9 °F 32% 29.43 in 10.0 mi WSW 20.7 mph - N/A   Clear
1:53 AM 39.9 °F 29.2 °F 15.1 °F 36% 29.43 in 10.0 mi WSW 25.3 mph 31.1 mph N/A   Clear
2:53 AM 39.0 °F 28.5 °F 14.0 °F 36% 29.46 in 10.0 mi WSW 23.0 mph - N/A   Clear
3:53 AM 36.0 °F 27.1 °F 19.9 °F 52% 29.51 in 10.0 mi West 13.8 mph - N/A   Clear
4:53 AM 39.9 °F 30.8 °F 28.0 °F 63% 29.53 in 10.0 mi NW 18.4 mph 27.6 mph N/A   Mostly Cloudy
5:53 AM 37.0 °F 27.7 °F 33.1 °F 86% 29.58 in 10.0 mi WNW 16.1 mph - N/A   Overcast
6:35 AM 37.4 °F 31.4 °F 33.8 °F 87% 29.64 in 10.0 mi West 8.1 mph - N/A   Overcast
7:04 AM 35.6 °F 29.2 °F 30.2 °F 81% 29.66 in 10.0 mi West 8.1 mph - N/A   Mostly Cloudy
7:53 AM 37.0 °F 30.4 °F 32.0 °F 82% 29.67 in 10.0 mi West 9.2 mph - N/A   Mostly Cloudy
8:53 AM 37.0 °F 26.7 °F 26.1 °F 65% 29.73 in 10.0 mi NNW 19.6 mph 25.3 mph N/A   Partly Cloudy
9:53 AM 39.0 °F 27.8 °F 21.9 °F 50% 29.77 in 10.0 mi NNW 26.5 mph 32.2 mph N/A   Clear
10:53 AM 37.9 °F 26.8 °F 19.9 °F 48% 29.82 in 10.0 mi NNW 24.2 mph 34.5 mph N/A   Clear
11:53 AM 39.0 °F 29.0 °F 19.9 °F 46% 29.82 in 10.0 mi NNW 20.7 mph 29.9 mph N/A   Partly Cloudy
12:53 PM 41.0 °F 31.4 °F 18.0 °F 40% 29.81 in 10.0 mi NNW 21.9 mph 36.8 mph N/A   Partly Cloudy
2:53 PM 42.1 °F 32.3 °F 15.1 °F 34% 29.82 in 10.0 mi NNW 24.2 mph 32.2 mph N/A   Partly Cloudy
3:53 PM 41.0 °F 31.4 °F 12.9 °F 32% 29.87 in 10.0 mi North 21.9 mph 33.4 mph N/A   Clear
4:53 PM 39.0 °F 28.0 °F 12.9 °F 34% 29.90 in 10.0 mi NNW 25.3 mph 34.5 mph N/A   Clear
5:53 PM 36.0 °F 25.3 °F 12.9 °F 39% 29.97 in 10.0 mi NNW 19.6 mph 28.8 mph N/A   Clear
6:53 PM 34.0 °F 23.4 °F 12.9 °F 42% 30.02 in 10.0 mi NNW 17.3 mph - N/A   Clear
7:53 PM 30.9 °F 20.7 °F 12.9 °F 47% 30.06 in 10.0 mi NNW 13.8 mph - N/A   Clear
8:53 PM 28.9 °F 19.2 °F 12.9 °F 51% 30.12 in 10.0 mi NW 11.5 mph - N/A   Clear
9:53 PM 28.9 °F 17.3 °F 12.9 °F 51% 30.14 in 10.0 mi NNW 16.1 mph - N/A   Clear
10:53 PM 27.0 °F 16.1 °F 12.9 °F 56% 30.18 in 10.0 mi NW 12.7 mph - N/A   Clear
11:53 PM 28.9 °F 17.3 °F 10.9 °F 47% 30.18 in 10.0 mi North 16.1 mph 24.2 mph N/A   Scattered Clouds